This is the latest recevied weather packets stored in our database for station/object C31FR-13. If no packets are shown the sender has not sent any weather packets the latest 10 day(s).
| Time | Temp. | Humidity | Pressure | Rain* | Wind** | Luminosity | Snow |
|---|---|---|---|---|---|---|---|
| 1777902064 | 15° C | 76% | 1011.8 hPa | - | - | - | - |
| 1777901763 | 15° C | 76% | 1011.9 hPa | - | - | - | - |
| 1777901462 | 15° C | 79% | 1012 hPa | - | - | - | - |
| 1777901162 | 14.44° C | 71% | 1012 hPa | - | - | - | - |
| 1777900862 | 14.44° C | 78% | 1012.3 hPa | - | - | - | - |
| 1777900563 | 13.89° C | 73% | 1012.6 hPa | - | - | - | - |
| 1777900262 | 13.89° C | 76% | 1012.7 hPa | - | - | - | - |
| 1777899963 | 13.89° C | 77% | 1012.7 hPa | - | - | - | - |
| 1777899664 | 14.44° C | 78% | 1012.6 hPa | - | - | - | - |
| 1777899365 | 14.44° C | 72% | 1012.5 hPa | - | - | - | - |
| 1777899063 | 14.44° C | 71% | 1012.4 hPa | - | - | - | - |
| 1777898762 | 14.44° C | 70% | 1012.3 hPa | - | - | - | - |
| 1777898463 | 14.44° C | 67% | 1012.2 hPa | - | - | - | - |
| 1777898162 | 15° C | 69% | 1012.2 hPa | - | - | - | - |
| 1777897863 | 15° C | 65% | 1012.1 hPa | - | - | - | - |
| 1777897562 | 15° C | 63% | 1012.1 hPa | - | - | - | - |
| 1777896962 | 15.56° C | 54% | 1011.5 hPa | - | - | - | - |
| 1777896662 | 16.11° C | 51% | 1011.4 hPa | - | - | - | - |
| 1777896363 | 16.67° C | 51% | 1011.3 hPa | - | - | - | - |
| 1777896062 | 16.67° C | 50% | 1011.3 hPa | - | - | - | - |
| 1777895763 | 16.67° C | 51% | 1011.4 hPa | - | - | - | - |
| 1777895463 | 16.67° C | 51% | 1011.5 hPa | - | - | - | - |
| 1777895163 | 16.67° C | 50% | 1011.4 hPa | - | - | - | - |
| 1777894863 | 16.67° C | 49% | 1011.2 hPa | - | - | - | - |
| 1777894563 | 16.67° C | 48% | 1011.4 hPa | - | - | - | - |
* Rain since midnight (hover to see other rain measurements)
** Current wind speed in m/s (hover to see current wind gust speed)